User: anonymous   Login
Location: Unspecified
(0.0000°N, 0.0000°E)
Time: 11:31:50
(UTC+00:00)
Language:

MOZHAYETS - Orbit

View from above orbital plane
View from above orbital plane
View from above satellite
View from above satellite

Ground track
Ground track

The orbit data is extracted from the following two-line orbital elements,

1 27560U 02054B   17265.23436497  .00000050  00000-0  21069-4 0  9997
2 27560  98.2218  38.4269 0041336 168.7881 309.1541 14.57643496786137
Epoch (UTC): 22 September 2017 05:37:29
Eccentricity: 0.0041336
inclination: 98.2218°
perigee height: 671 km
apogee height: 730 km
right ascension of ascending node: 38.4269°
argument of perigee: 168.7881°
revolutions per day: 14.57643496
mean anomaly at epoch: 309.1541°
orbit number at epoch: 78613

The dashed part of the orbit path shows where the satellite is in the earth's shadow,  

DLR